Location: Newark
(52.4787°S, 179.0532°W)
Time: 10:08:32
(UTC+00:00)

Envisat - Pass Details

Date: 27 October 2019
Orbit: 764 x 766 km, 98.1° (Epoch: 19 November)

Event Time Altitude Azimuth Distance (km) Brightness Sun altitude
Rises 07:39:57 0° 169° (SSE) 3,278 6.6 -7.0°
Reaches altitude 10° 07:42:19 10° 173° (S) 2,344 5.9 -7.3°
Maximum altitude 07:47:20 53° 248° (WSW) 954 4.0 -8.0°
Drops below altitude 10° 07:52:18 10° 323° (NW) 2,318 5.5 -8.6°
Sets 07:54:38 0° 328° (NNW) 3,238 6.2 -8.9°
